Location: Lafig�re
(44.4503°N, 4.0357°E)
Time: 14:57:15
(UTC+00:00)

ARGOS - Pass Details

Date: 27 January 2021
Orbit: 821 x 834 km, 98.4° (Epoch: 05 March)

Event Time Altitude Azimuth Distance (km) Brightness Sun altitude
Rises 20:21:43 0° 218° (SW) 3,344 6.6 -38.3°
Reaches altitude 10° 20:25:26 10° 245° (WSW) 2,420 6.0 -39.0°
Maximum altitude 20:27:55 13° 272° (W) 2,204 6.0 -39.4°
Drops below altitude 10° 20:30:24 10° 300° (WNW) 2,432 6.2 -39.8°
Sets 20:34:11 0° 327° (NNW) 3,375 6.9 -40.5°
